Location: Catstown
(52.4386°N, 7.2633°W)
Time: 17:09:09
(UTC+00:00)

Cosmos 2150 Rocket - Pass Details

Date: 18 September 2020
Orbit: 749 x 808 km, 74.0° (Epoch: 30 October)

Event Time Altitude Azimuth Distance (km) Brightness Sun altitude
Rises 20:27:44 0° 193° (SSW) 3,266 7.1 -17.2°
Reaches altitude 10° 20:30:07 10° 191° (S) 2,350 6.4 -17.5°
Maximum altitude 20:35:25 65° 110° (ESE) 878 4.0 -18.3°
Drops below altitude 10° 20:40:49 10° 30° (NNE) 2,396 6.6 -19.0°
Sets 20:43:16 0° 28° (NNE) 3,335 7.3 -19.3°
